Shannon, Ireland

9:42 PM GMT on February 11, 2016 (GMT +0000)
Shannon

Weather History for EINN - April, 2013

Change the Weather History Date:

Thursday, April 18, 2013

  Actual Average Record
Temperature  
Mean Temperature 48 °F -  
Max Temperature 51 °F 58 °F 73 °F (2003)
Min Temperature 44 °F 43 °F 32 °F (1999)
Degree Days  
Heating Degree Days 18    
Moisture  
Dew Point 42 °F    
Average Humidity 81    
Maximum Humidity 93    
Minimum Humidity 62    
Precipitation  
Precipitation 0.08 in 0.08 in - ()
Sea Level Pressure  
Sea Level Pressure 29.83 in    
Wind  
Wind Speed 22 mph ()    
Max Wind Speed 40 mph    
Max Gust Speed 53 mph    
Visibility 6.1 miles    
Events Rain    
Averages and records for this station are not official NWS values.
T = Trace of Precipitation, MM = Missing Value Source: Averaged Metar Reports

Daily Weather History Graph

Daily Weather History Graph

Search for Another Location

Airport or City:

Trip Planner

Search our weather history database for the weather conditions in past years. The results will help you decide how hot, cold, wet, or windy it might be!

Date:

Astronomy

Apr. 18, 2013 Rise Set
Actual Time 6:30 AM IST 8:40 PM IST
Civil Twilight 5:53 AM IST 9:17 PM IST
Nautical Twilight 5:07 AM IST 10:04 PM IST
Astronomical Twilight 4:13 AM IST 10:59 PM IST
Moon 12:18 PM IST (4/18) 2:58 AM IST (4/18)
Length of Visible Light 15h 23m
Length of Day
14h 09m
Waxing Crescent, 49% of the Moon is Illuminated
Apr 18
Waxing Crescent
Apr 18
First Quarter
Apr 25
Full
May 2
Last Quarter
May 10
New

Hourly Weather History & Observations

Time (IST) Temp. Windchill Dew Point Humidity Pressure Visibility Wind Dir Wind Speed Gust Speed Precip Events Conditions
12:00 AM 48.2 °F - 46.4 °F 93% 29.39 in 2.5 mi SW 40.3 mph 52.9 mph N/A Rain Light Rain
12:30 AM 46.4 °F 36.7 °F 44.6 °F 93% 29.44 in 3.7 mi WSW 33.4 mph 46.0 mph N/A Rain Light Rain
1:00 AM 47 °F - 44 °F 86% 29.49 in 5 mi WSW 31.3 mph - - Rain Light Rain
1:00 AM 46.4 °F 37.0 °F 44.6 °F 93% 29.47 in 5.0 mi WSW 31.1 mph - N/A Rain Light Rain
1:30 AM 46.4 °F 37.7 °F 44.6 °F 93% 29.50 in 5.0 mi WSW 26.5 mph - N/A Rain Light Rain
2:00 AM 46.4 °F 38.7 °F 44.6 °F 93% 29.53 in 6.2 mi WSW 20.7 mph - N/A Rain Light Rain
2:30 AM 46.4 °F 39.5 °F 42.8 °F 87% 29.56 in 6.2 mi West 17.3 mph - N/A Rain Light Rain
3:00 AM 46.4 °F 40.4 °F 42.8 °F 87% 29.56 in 6.2 mi SW 13.8 mph - N/A   Mostly Cloudy
3:30 AM 46.4 °F 43.5 °F 42.8 °F 87% 29.59 in 6.2 mi WSW 5.8 mph - N/A   Mostly Cloudy
4:00 AM 46.4 °F 39.5 °F 42.8 °F 87% 29.59 in 6.2 mi SW 17.3 mph - N/A   Mostly Cloudy
4:30 AM 46.4 °F 40.1 °F 42.8 °F 87% 29.62 in 6.2 mi WSW 15.0 mph - N/A   Mostly Cloudy
5:00 AM 46.4 °F 40.1 °F 42.8 °F 87% 29.62 in 6.2 mi WSW 15.0 mph - N/A   Mostly Cloudy
5:30 AM 46.4 °F 39.8 °F 42.8 °F 87% 29.65 in 6.2 mi WSW 16.1 mph - N/A   Mostly Cloudy
6:00 AM 46.4 °F 40.1 °F 42.8 °F 87% 29.65 in 6.2 mi SW 15.0 mph - N/A   Mostly Cloudy
6:30 AM 46.4 °F 39.8 °F 42.8 °F 87% 29.68 in 6.2 mi WSW 16.1 mph - N/A   Mostly Cloudy
7:00 AM 46 °F - 42 °F 82% 29.71 in 9 mi West 8.9 mph - - Rain Light Rain Showers
7:00 AM 46.4 °F 41.9 °F 42.8 °F 87% 29.68 in 6.2 mi West 9.2 mph - N/A   Mostly Cloudy
7:30 AM 46.4 °F 39.2 °F 41.0 °F 81% 29.71 in 6.2 mi WSW 18.4 mph - N/A   Mostly Cloudy
8:00 AM 46.4 °F 38.7 °F 42.8 °F 87% 29.74 in 6.2 mi WSW 20.7 mph - N/A   Mostly Cloudy
8:30 AM 48.2 °F - 41.0 °F 76% 29.74 in 6.2 mi WSW 20.7 mph - N/A   Scattered Clouds
9:00 AM 48.2 °F - 39.2 °F 71% 29.77 in 6.2 mi West 23.0 mph - N/A   Scattered Clouds
9:30 AM 50.0 °F - 39.2 °F 66% 29.80 in 6.2 mi WSW 20.7 mph - N/A   Partly Cloudy
10:00 AM 50.0 °F - 39.2 °F 66% 29.80 in 6.2 mi West 26.5 mph 40.3 mph N/A   Partly Cloudy
10:30 AM 50.0 °F - 37.4 °F 62% 29.83 in 6.2 mi West 28.8 mph 40.3 mph N/A   Scattered Clouds
11:00 AM 50.0 °F - 37.4 °F 62% 29.83 in 6.2 mi West 24.2 mph - N/A   Scattered Clouds
11:30 AM 50.0 °F - 37.4 °F 62% 29.86 in 6.2 mi WSW 27.6 mph - N/A   Mostly Cloudy
12:00 PM 51.8 °F - 39.2 °F 62% 29.86 in 6.2 mi West 28.8 mph - N/A   Mostly Cloudy
12:30 PM 50.0 °F - 41.0 °F 71% 29.89 in 6.2 mi West 25.3 mph 40.3 mph N/A   Scattered Clouds
1:00 PM 49 °F - 42 °F 68% 29.91 in 10 mi WSW 26.8 mph - - Rain Light Rain Showers
1:00 PM 48.2 °F - 41.0 °F 76% 29.89 in 6.2 mi WSW 27.6 mph - N/A   Partly Cloudy
1:30 PM 48.2 °F - 42.8 °F 82% 29.92 in 4.3 mi West 24.2 mph - N/A Rain Light Rain Showers
2:00 PM 50.0 °F - 41.0 °F 71% 29.92 in 6.2 mi West 28.8 mph 42.6 mph N/A   Mostly Cloudy
2:30 PM 50.0 °F - 41.0 °F 71% 29.95 in - West 28.8 mph 41.4 mph N/A   Mostly Cloudy
3:00 PM 50.0 °F - 41.0 °F 71% 29.95 in 6.2 mi West 29.9 mph 43.7 mph N/A   Scattered Clouds
3:30 PM 51.8 °F - 42.8 °F 71% 29.95 in 6.2 mi West 27.6 mph - N/A   Mostly Cloudy
4:00 PM 51.8 °F - 41.0 °F 67% 29.95 in 6.2 mi West 27.6 mph 42.6 mph N/A   Mostly Cloudy
4:30 PM 48.2 °F - 42.8 °F 82% 29.98 in 6.2 mi West 24.2 mph 38.0 mph N/A   Scattered Clouds
5:00 PM 51.8 °F - 41.0 °F 67% 29.98 in 6.2 mi West 31.1 mph 46.0 mph N/A   Scattered Clouds
5:30 PM 46.4 °F 37.5 °F 41.0 °F 81% 30.01 in 3.7 mi WNW 27.6 mph 41.4 mph N/A Rain Light Rain Showers
6:00 PM 44.6 °F 34.9 °F 41.0 °F 87% 30.04 in 4.3 mi West 28.8 mph - N/A Rain Light Rain Showers
6:30 PM 46.4 °F 38.3 °F 42.8 °F 87% 30.04 in 6.2 mi West 23.0 mph - N/A Rain Light Rain Showers
7:00 PM 46 °F - 43 °F 85% 30.06 in 9 mi West 22.4 mph - - Rain Light Rain Showers
7:00 PM 46.4 °F 38.5 °F 42.8 °F 87% 30.04 in 6.2 mi West 21.9 mph - N/A Rain Light Rain Showers
7:30 PM 46.4 °F 38.7 °F 42.8 °F 87% 30.06 in 6.2 mi West 20.7 mph - N/A   Mostly Cloudy
8:00 PM 46.4 °F 39.0 °F 42.8 °F 87% 30.09 in 6.2 mi West 19.6 mph - N/A   Mostly Cloudy
8:30 PM 46.4 °F 39.2 °F 42.8 °F 87% 30.09 in 6.2 mi West 18.4 mph - N/A   Scattered Clouds
9:00 PM 46.4 °F 39.8 °F 41.0 °F 81% 30.12 in 6.2 mi West 16.1 mph - N/A   Scattered Clouds
9:30 PM 46.4 °F 40.1 °F 42.8 °F 87% 30.15 in 6.2 mi West 15.0 mph - N/A Rain Light Rain Showers
10:00 PM 44.6 °F 38.8 °F 42.8 °F 93% 30.15 in 6.2 mi West 11.5 mph - N/A   Partly Cloudy
10:30 PM 46.4 °F 41.1 °F 42.8 °F 87% 30.18 in 6.2 mi West 11.5 mph - N/A   Scattered Clouds
11:00 PM 44.6 °F 38.1 °F 41.0 °F 87% 30.18 in 6.2 mi West 13.8 mph - N/A   Partly Cloudy
11:30 PM 44.6 °F 38.4 °F 42.8 °F 93% 30.18 in 6.2 mi West 12.7 mph - N/A   Partly Cloudy